[[{"header":{"parameterUnit":"m.s-1","parameterCategory":1,"la1":30.2991,"la2":30.254,"lo1":-89.0895,"lo2":-89.0444,"dy":0.0017,"dx":0.0017,"nx":28,"ny":28,"refTime":"2024-03-14T21:00:00:Z","depth":0,"parameterNumber":2,"parameterNumberName":"U-component_of_WINDS"},"data":[0,0,0,0,0,0,0,0,0,0,0,0,0,0,0,0,0,0,0,0,0,0,0,0,0,0,0,0,0,0,0,0,0,0,0,0,0,0,0,0,0,0,0,0,0,0,0,0,0,0,0,0,0,0,0,0,0,0,-0.5641,-0.564,0,-0.5525,-0.5523,-0.5522,-0.546,-0.546,-0.546,-0.546,-0.5338,-0.5335,-0.5332,0,0,0,0,0,0,0,0,0,0,0,0,0,-0.5806,-0.5803,-0.5641,-0.564,-0.5638,-0.5525,-0.5523,-0.5522,-0.546,-0.546,-0.546,-0.546,-0.5339,-0.5335,-0.5331,0,0,0,0,0,0,0,0,0,0,0,0,0,-0.5717,-0.5803,-0.5641,-0.5594,-0.5588,-0.5525,-0.5523,-0.5521,-0.546,-0.546,-0.546,-0.546,-0.534,-0.5336,-0.5331,-0.5306,0,0,-0.5317,-0.5315,0,0,0,0,0,0,0,0,-0.5722,-0.5711,-0.5602,-0.5597,-0.5591,-0.5507,-0.5537,-0.5449,-0.546,-0.5509,-0.546,-0.5459,-0.5394,-0.5385,-0.5363,-0.53,-0.5295,-0.5316,-0.5313,-0.5311,-0.531,0,0,0,0,0,0,0,-0.5728,-0.5715,-0.5595,-0.5601,-0.5594,-0.5577,-0.5564,-0.552,-0.5454,-0.5504,-0.55,-0.5487,-0.5391,-0.5368,-0.536,-0.5293,-0.5316,-0.5312,-0.5309,-0.5307,-0.5202,-0.5202,0,0,0,0,0,0,-0.5742,-0.5721,-0.5599,-0.5591,-0.5657,-0.5574,-0.556,-0.5534,-0.5454,-0.5442,-0.5487,-0.5484,-0.5376,-0.5366,-0.5356,-0.5321,-0.5311,-0.5307,-0.5304,-0.5202,-0.5202,-0.5202,0,0,0,0,0,0,-0.5746,-0.5732,-0.5603,-0.5655,-0.5637,-0.5572,-0.5543,-0.5532,-0.5509,-0.5441,-0.5429,-0.5476,-0.5376,-0.5362,-0.5319,-0.5316,-0.5305,-0.5301,-0.5202,-0.5202,-0.5202,-0.5251,0,0,0,0,0,0,-0.5751,-0.5734,-0.5724,-0.5655,-0.5635,-0.5569,-0.5543,-0.5529,-0.5501,-0.5497,-0.5428,-0.5416,-0.5374,-0.5326,-0.5314,-0.5309,-0.5297,-0.5202,-0.5202,-0.5202,-0.5249,-0.5253,-0.5256,0,0,0,0,0,-0.5757,-0.5742,-0.5724,-0.571,-0.5621,-0.5569,-0.5557,-0.5511,-0.5501,-0.5491,-0.5447,-0.5418,-0.5318,-0.5322,-0.5308,-0.5302,-0.5202,-0.5202,-0.5202,-0.5248,-0.5252,-0.5256,0,0,0,0,0,0,-0.5811,-0.5732,-0.5711,-0.5673,-0.5629,-0.5559,-0.5544,-0.5517,-0.5473,-0.547,-0.5414,-0.5399,-0.536,-0.5326,-0.5332,-0.5273,-0.5257,-0.5254,-0.5297,-0.53,-0.5303,-0.5312,-0.5293,0,0,0,0,0,-0.5819,-0.5784,-0.5716,-0.5689,-0.5668,-0.561,-0.5586,-0.5554,-0.5505,-0.5485,-0.5438,-0.5391,-0.5349,-0.5322,-0.528,-0.5244,-0.5228,-0.5233,-0.5236,-0.5239,-0.5237,-0.5215,-0.5217,-0.5203,-0.5203,-0.5203,0,0,-0.5834,-0.5786,-0.5768,-0.5699,-0.566,-0.5625,-0.5595,-0.5558,-0.5531,-0.5479,-0.5436,-0.54,-0.5343,-0.5304,-0.5284,-0.5274,-0.5237,-0.5239,-0.5242,-0.5238,-0.5216,-0.5217,-0.5218,-0.5203,-0.5203,-0.5203,0,0,-0.5843,-0.5804,-0.5777,-0.574,-0.5682,-0.5644,-0.5638,-0.5572,-0.5547,-0.5502,-0.5463,-0.5429,-0.5358,-0.5319,-0.529,-0.5285,-0.5257,-0.5273,-0.5289,-0.5269,-0.527,-0.5271,-0.5269,-0.5269,-0.5271,-0.5272,-0.5272,0,-0.5869,-0.5815,-0.5767,-0.5733,-0.5704,-0.5656,-0.5628,-0.5594,-0.5525,-0.5506,-0.5496,-0.5406,-0.5364,-0.5315,-0.5314,-0.5292,-0.5282,-0.5281,-0.5274,-0.5274,-0.5274,-0.5272,-0.5271,-0.5274,-0.5274,-0.5273,-0.5273,0,-0.585,-0.5813,-0.5798,-0.5734,-0.5703,-0.5672,-0.5618,-0.5593,-0.5563,-0.5526,-0.5481,-0.543,-0.5376,-0.5362,-0.5332,-0.5308,-0.5304,-0.5285,-0.5268,-0.5279,-0.5276,-0.5274,-0.5277,-0.5276,-0.5276,-0.5275,0,0,-0.589,-0.58,-0.5796,-0.5766,-0.57,-0.567,-0.5636,-0.5585,-0.5564,-0.5518,-0.5489,-0.5429,-0.5411,-0.5378,-0.5344,-0.5327,-0.5326,-0.5309,-0.5307,-0.5314,-0.5296,-0.5312,-0.5312,-0.5307,-0.5307,-0.5306,-0.5301,0,-0.589,-0.583,-0.5785,-0.5742,-0.5707,-0.5661,-0.5632,-0.5588,-0.5552,-0.5516,-0.5475,-0.5435,-0.5414,-0.5394,-0.5374,-0.5331,-0.5322,-0.533,-0.5278,-0.5277,-0.5295,-0.531,-0.5326,-0.5324,-0.53,-0.53,-0.5299,0,-0.5883,-0.584,-0.5793,-0.573,-0.5714,-0.5689,-0.5638,-0.5605,-0.5553,-0.5528,-0.5492,-0.5457,-0.5419,-0.5406,-0.5352,-0.5359,-0.5335,-0.531,-0.5309,-0.5303,-0.5289,-0.5304,-0.5322,-0.5322,-0.5297,-0.5297,-0.5297,0,-0.5917,-0.5848,-0.5811,-0.5787,-0.5713,-0.5696,-0.5664,-0.5613,-0.5585,-0.554,-0.5521,-0.5472,-0.5445,-0.5408,-0.536,-0.5355,-0.5312,-0.5294,-0.529,-0.5291,-0.5283,-0.5284,-0.5297,-0.5267,-0.5267,-0.5267,-0.5267,0,-0.5923,-0.5896,-0.5825,-0.5803,-0.5771,-0.572,-0.569,-0.5654,-0.5608,-0.5577,-0.5534,-0.5505,-0.5444,-0.5408,-0.537,-0.5332,-0.532,-0.5298,-0.5289,-0.5302,-0.5305,-0.5286,-0.5285,-0.5267,-0.5267,-0.5267,-0.5267,0,-0.5956,-0.5908,-0.5865,-0.5799,-0.5781,-0.5761,-0.5704,-0.5679,-0.5641,-0.5602,-0.559,-0.553,-0.5485,-0.5434,-0.5371,-0.5346,-0.5311,-0.5296,-0.5329,-0.5323,-0.5322,-0.5323,-0.5323,-0.5321,-0.5292,-0.5293,-0.5293,0,-0.5963,-0.5942,-0.5874,-0.585,-0.582,-0.5783,-0.5754,-0.5702,-0.5674,-0.5614,-0.5597,-0.5549,-0.5508,-0.5438,-0.5388,-0.5341,-0.5325,-0.5328,-0.5317,-0.5332,-0.5325,-0.5328,-0.5325,-0.5332,-0.5332,-0.5333,-0.5333,0,-0.5981,-0.5958,-0.5919,-0.5872,-0.584,-0.5799,-0.5758,-0.5741,-0.568,-0.565,-0.5605,-0.5573,-0.551,-0.5463,-0.5409,-0.5375,-0.5344,-0.5337,-0.5333,-0.5348,-0.5367,-0.5357,-0.5338,-0.5337,-0.5337,-0.5337,-0.5336,-0.5336,-0.6001,-0.598,-0.5929,-0.5887,-0.5851,-0.5812,-0.5787,-0.5746,-0.5707,-0.5653,-0.5624,-0.5579,-0.5527,-0.5451,-0.5418,-0.5382,-0.5371,-0.5366,-0.5365,-0.5364,-0.5368,-0.5373,-0.5371,-0.5371,-0.5371,-0.5371,-0.5371,0,-0.6017,-0.5982,-0.5944,-0.5887,-0.5854,-0.5829,-0.5781,-0.5755,-0.5716,-0.5671,-0.5632,-0.5579,-0.5533,-0.548,-0.543,-0.5411,-0.5395,-0.54,-0.5401,-0.5393,-0.538,-0.5389,-0.5413,-0.5413,-0.5413,-0.5413,-0.5413,-0.5413,-0.6021,-0.5985,-0.5956,-0.59,-0.5865,-0.5821,-0.5796,-0.576,-0.5724,-0.5668,-0.563,-0.5596,-0.5547,-0.5493,-0.545,-0.5435,-0.5419,-0.5428,-0.5409,-0.5398,-0.5394,-0.5391,-0.5398,-0.5425,-0.5425,-0.5425,-0.5425,-0.5425]},{"header":{"parameterUnit":"m.s-1","parameterCategory":1,"la1":30.2991,"la2":30.254,"lo1":-89.0895,"lo2":-89.0444,"dy":0.0017,"dx":0.0017,"nx":28,"ny":28,"refTime":"2024-03-14T21:00:00:Z","depth":0,"parameterNumber":3,"parameterNumberName":"V-component_of_WINDS"},"data":[0,0,0,0,0,0,0,0,0,0,0,0,0,0,0,0,0,0,0,0,0,0,0,0,0,0,0,0,0,0,0,0,0,0,0,0,0,0,0,0,0,0,0,0,0,0,0,0,0,0,0,0,0,0,0,0,0,0,-0.8763,-0.8763,0,-0.8756,-0.8756,-0.8756,-0.8745,-0.8744,-0.8744,-0.8744,-0.8734,-0.8734,-0.8734,0,0,0,0,0,0,0,0,0,0,0,0,0,-0.8765,-0.8765,-0.8763,-0.8763,-0.8763,-0.8756,-0.8756,-0.8756,-0.8745,-0.8744,-0.8744,-0.8744,-0.8734,-0.8734,-0.8734,0,0,0,0,0,0,0,0,0,0,0,0,0,-0.8761,-0.8765,-0.8763,-0.8757,-0.8756,-0.8756,-0.8756,-0.8756,-0.8745,-0.8744,-0.8744,-0.8744,-0.8734,-0.8734,-0.8734,-0.8739,0,0,-0.8733,-0.8733,0,0,0,0,0,0,0,0,-0.8762,-0.8761,-0.8758,-0.8757,-0.8756,-0.8751,-0.8753,-0.875,-0.8745,-0.8749,-0.8744,-0.8744,-0.874,-0.8739,-0.8738,-0.8739,-0.8738,-0.8733,-0.8733,-0.8733,-0.8733,0,0,0,0,0,0,0,-0.8762,-0.8762,-0.876,-0.8758,-0.8757,-0.8753,-0.8753,-0.8752,-0.8746,-0.8748,-0.8748,-0.8747,-0.8739,-0.8739,-0.8738,-0.8738,-0.8733,-0.8733,-0.8733,-0.8733,-0.8744,-0.8744,0,0,0,0,0,0,-0.8763,-0.8762,-0.8761,-0.876,-0.8758,-0.8754,-0.8753,-0.8753,-0.8746,-0.8745,-0.8747,-0.8747,-0.8739,-0.8738,-0.8738,-0.8745,-0.8733,-0.8733,-0.8733,-0.8744,-0.8744,-0.8745,0,0,0,0,0,0,-0.8764,-0.8763,-0.8761,-0.8761,-0.876,-0.8754,-0.8754,-0.8753,-0.8752,-0.8745,-0.8744,-0.8748,-0.8739,-0.8738,-0.8739,-0.8744,-0.8733,-0.8733,-0.8743,-0.8744,-0.8744,-0.8759,0,0,0,0,0,0,-0.8764,-0.8764,-0.8766,-0.8761,-0.876,-0.8763,-0.8755,-0.8753,-0.8752,-0.8751,-0.8745,-0.8744,-0.8738,-0.874,-0.8739,-0.8744,-0.8733,-0.8743,-0.8744,-0.8744,-0.8758,-0.8759,-0.8761,0,0,0,0,0,-0.8764,-0.8769,-0.8766,-0.8766,-0.8763,-0.8764,-0.8763,-0.8757,-0.8753,-0.8755,-0.8751,-0.8744,-0.8744,-0.874,-0.8739,-0.8744,-0.8743,-0.8743,-0.8744,-0.8757,-0.8759,-0.8761,0,0,0,0,0,0,-0.8773,-0.8768,-0.8765,-0.8769,-0.8767,-0.8762,-0.8764,-0.876,-0.8758,-0.8757,-0.8749,-0.8748,-0.8751,-0.8747,-0.8743,-0.875,-0.8742,-0.8743,-0.8752,-0.8754,-0.8756,-0.8757,-0.8733,0,0,0,0,0,-0.8776,-0.8777,-0.8773,-0.8777,-0.8776,-0.877,-0.877,-0.8766,-0.8763,-0.8762,-0.8758,-0.8755,-0.8754,-0.8754,-0.8752,-0.8757,-0.8756,-0.876,-0.8762,-0.8763,-0.8764,-0.8768,-0.877,-0.8747,-0.8747,-0.8747,0,0,-0.8781,-0.8779,-0.878,-0.8779,-0.8777,-0.8778,-0.877,-0.8771,-0.8772,-0.8762,-0.8764,-0.8761,-0.8757,-0.8761,-0.8762,-0.8758,-0.877,-0.8764,-0.8765,-0.8765,-0.8769,-0.8771,-0.8773,-0.8748,-0.8748,-0.8748,0,0,-0.8792,-0.879,-0.8794,-0.8793,-0.879,-0.8787,-0.8788,-0.8784,-0.8782,-0.8784,-0.8777,-0.8777,-0.8776,-0.8774,-0.8773,-0.8785,-0.8779,-0.8784,-0.8794,-0.8797,-0.8799,-0.8801,-0.8806,-0.8808,-0.8785,-0.8785,-0.8785,0,-0.8798,-0.8801,-0.8796,-0.8799,-0.8799,-0.8791,-0.8795,-0.8794,-0.8791,-0.8791,-0.8787,-0.8786,-0.8783,-0.8787,-0.879,-0.8788,-0.879,-0.8785,-0.8799,-0.8801,-0.8802,-0.8807,-0.8809,-0.8786,-0.8786,-0.8786,-0.8786,0,-0.881,-0.8812,-0.8816,-0.8815,-0.8815,-0.8818,-0.8814,-0.8814,-0.881,-0.8807,-0.881,-0.8806,-0.8805,-0.8805,-0.88,-0.8809,-0.8807,-0.8801,-0.8793,-0.8805,-0.881,-0.8812,-0.8787,-0.8787,-0.8786,-0.8786,0,0,-0.8825,-0.8824,-0.8825,-0.8825,-0.8823,-0.8824,-0.8828,-0.8828,-0.8829,-0.8827,-0.883,-0.883,-0.8826,-0.8824,-0.8819,-0.8822,-0.8834,-0.8816,-0.8816,-0.8821,-0.8844,-0.885,-0.8852,-0.883,-0.883,-0.8831,-0.8845,0,-0.8836,-0.8843,-0.8839,-0.8846,-0.8849,-0.8842,-0.8845,-0.8844,-0.8842,-0.8843,-0.884,-0.884,-0.8833,-0.8833,-0.8836,-0.8832,-0.8839,-0.8831,-0.8833,-0.8833,-0.8835,-0.8854,-0.8859,-0.8873,-0.8847,-0.8847,-0.8847,0,-0.885,-0.8851,-0.8859,-0.8858,-0.8859,-0.8862,-0.8863,-0.8864,-0.8863,-0.8861,-0.886,-0.8855,-0.8858,-0.8851,-0.8855,-0.885,-0.885,-0.8849,-0.8849,-0.885,-0.8842,-0.8857,-0.8878,-0.888,-0.885,-0.885,-0.885,0,-0.8862,-0.8865,-0.8871,-0.8871,-0.887,-0.8873,-0.8872,-0.8871,-0.8872,-0.8872,-0.8873,-0.8872,-0.8873,-0.8873,-0.8868,-0.8862,-0.8873,-0.8865,-0.8872,-0.8873,-0.8875,-0.8875,-0.8898,-0.8874,-0.8874,-0.8874,-0.8874,0,-0.8875,-0.8881,-0.8877,-0.8881,-0.8887,-0.8882,-0.8888,-0.8887,-0.8886,-0.8889,-0.8882,-0.8885,-0.8878,-0.888,-0.8876,-0.8881,-0.8881,-0.888,-0.8879,-0.8881,-0.8881,-0.8882,-0.8881,-0.8874,-0.8874,-0.8874,-0.8874,0,-0.889,-0.8888,-0.8894,-0.8893,-0.8893,-0.8898,-0.8897,-0.89,-0.8898,-0.8902,-0.8902,-0.8898,-0.8901,-0.8896,-0.8897,-0.8894,-0.8902,-0.8899,-0.8903,-0.8903,-0.8911,-0.8911,-0.8935,-0.8939,-0.8911,-0.8912,-0.8912,0,-0.8899,-0.8903,-0.8904,-0.8906,-0.8907,-0.891,-0.8912,-0.8908,-0.8909,-0.891,-0.8913,-0.8915,-0.8917,-0.8921,-0.8918,-0.8919,-0.8916,-0.8925,-0.8916,-0.8919,-0.8918,-0.8919,-0.892,-0.8927,-0.8927,-0.8928,-0.8928,0,-0.8915,-0.8915,-0.8918,-0.8922,-0.8924,-0.8926,-0.8928,-0.893,-0.8925,-0.8928,-0.8931,-0.8933,-0.8935,-0.8938,-0.8939,-0.8937,-0.8932,-0.8931,-0.8933,-0.8935,-0.8939,-0.8939,-0.8909,-0.893,-0.893,-0.893,-0.893,-0.8929,-0.8928,-0.8933,-0.8935,-0.8939,-0.894,-0.8942,-0.8946,-0.8945,-0.8948,-0.8951,-0.8948,-0.8953,-0.8952,-0.8953,-0.8953,-0.8956,-0.8952,-0.8955,-0.8956,-0.8957,-0.8959,-0.8937,-0.8956,-0.8956,-0.8956,-0.8956,-0.8956,0,-0.8946,-0.8947,-0.8951,-0.8955,-0.8959,-0.8955,-0.8957,-0.896,-0.8965,-0.8965,-0.8968,-0.8973,-0.8976,-0.8973,-0.8976,-0.8979,-0.8977,-0.898,-0.898,-0.898,-0.8961,-0.896,-0.8982,-0.8982,-0.8982,-0.8982,-0.8982,-0.8982,-0.8955,-0.8963,-0.8963,-0.8972,-0.8973,-0.8979,-0.8981,-0.8983,-0.8984,-0.899,-0.8993,-0.8992,-0.8992,-0.8995,-0.8998,-0.8997,-0.8999,-0.9003,-0.9001,-0.8984,-0.8981,-0.8979,-0.8978,-0.9003,-0.9003,-0.902,-0.9021,-0.9021]}]]